| time (UTC) | temp F | wind direction | speed MPH | gust MPH | rain 1hr in | rain 24hr in | rain mn in | humidity % | barometer mb |
| 20260505011549 | 61 | 360 | 14.0 | 24.0 | 0.00 | 0.00 | 0.00 | 40 | 1006.7 |
| 20260505010109 | 62 | 360 | 16.0 | 25.0 | 0.00 | 0.00 | 0.00 | 39 | 1006.3 |
| 20260505004547 | 65 | 360 | 15.0 | 22.0 | 0.00 | 0.00 | 0.00 | 38 | 1006.0 |
| 20260505003048 | 66 | 360 | 19.0 | 26.0 | 0.00 | 0.00 | 0.00 | 37 | 1005.7 |
| 20260505001549 | 67 | 360 | 17.0 | 25.0 | 0.00 | 0.00 | 0.00 | 36 | 1005.5 |
| 20260505000050 | 67 | 360 | 18.0 | 26.0 | 0.00 | 0.00 | 0.00 | 36 | 1005.6 |
| 20260504234549 | 68 | 360 | 17.0 | 27.0 | 0.00 | 0.00 | 0.00 | 35 | 1005.7 |
| 20260504233047 | 70 | 360 | 17.0 | 25.0 | 0.00 | 0.00 | 0.00 | 34 | 1005.7 |
| 20260504231548 | 70 | 360 | 19.0 | 26.0 | 0.00 | 0.00 | 0.00 | 34 | 1005.2 |
| 20260504230048 | 69 | 360 | 13.0 | 21.0 | 0.00 | 0.00 | 0.00 | 35 | 1005.3 |
| 20260504224544 | 69 | 360 | 16.0 | 25.0 | 0.00 | 0.00 | 0.00 | 34 | 1005.1 |
| 20260504223058 | 70 | 360 | 18.0 | 26.0 | 0.00 | 0.00 | 0.00 | 32 | 1004.9 |
| 20260504221604 | 70 | 360 | 16.0 | 24.0 | 0.00 | 0.00 | 0.00 | 32 | 1004.8 |
| 20260504220049 | 70 | 360 | 15.0 | 25.0 | 0.00 | 0.00 | 0.00 | 32 | 1005.2 |
| 20260504214600 | 73 | 360 | 18.0 | 25.0 | 0.00 | 0.00 | 0.00 | 31 | 1004.6 |
| 20260504213100 | 74 | 360 | 17.0 | 24.0 | 0.00 | 0.00 | 0.00 | 31 | 1004.9 |
| 20260504211553 | 74 | 360 | 17.0 | 23.0 | 0.00 | 0.00 | 0.00 | 31 | 1004.7 |
| 20260504210049 | 73 | 360 | 12.0 | 17.0 | 0.00 | 0.00 | 0.00 | 34 | 1004.7 |
| 20260504204600 | 73 | 360 | 15.0 | 20.0 | 0.00 | 0.00 | 0.00 | 34 | 1004.5 |
| 20260504203053 | 75 | 360 | 14.0 | 23.0 | 0.00 | 0.00 | 0.00 | 33 | 1004.5 |
| 20260504201549 | 75 | 360 | 14.0 | 22.0 | 0.00 | 0.00 | 0.00 | 35 | 1004.2 |
| 20260504200050 | 75 | 360 | 14.0 | 23.0 | 0.00 | 0.00 | 0.00 | 34 | 1004.3 |
| 20260504194555 | 76 | 360 | 19.0 | 27.0 | 0.00 | 0.00 | 0.00 | 33 | 1004.3 |
| 20260504193057 | 77 | 360 | 17.0 | 25.0 | 0.00 | 0.00 | 0.00 | 35 | 1004.0 |
| 20260504191547 | 78 | 360 | 17.0 | 24.0 | 0.00 | 0.00 | 0.00 | 33 | 1004.1 |
| 20260504190047 | 78 | 360 | 16.0 | 25.0 | 0.00 | 0.00 | 0.00 | 31 | 1004.0 |
| 20260504184550 | 79 | 360 | 17.0 | 27.0 | 0.00 | 0.00 | 0.00 | 32 | 1004.0 |
| 20260504183050 | 79 | 360 | 16.0 | 24.0 | 0.00 | 0.00 | 0.00 | 32 | 1003.8 |
| 20260504181550 | 80 | 360 | 17.0 | 25.0 | 0.00 | 0.00 | 0.00 | 28 | 1003.8 |
| 20260504180057 | 80 | 360 | 12.0 | 22.0 | 0.00 | 0.00 | 0.00 | 22 | 1003.6 |
| 20260504174553 | 80 | 360 | 14.0 | 24.0 | 0.00 | 0.00 | 0.00 | 22 | 1003.9 |
| 20260504173049 | 80 | 360 | 8.0 | 22.0 | 0.00 | 0.00 | 0.00 | 24 | 1003.8 |
| 20260504171554 | 79 | 360 | 12.0 | 23.0 | 0.00 | 0.00 | 0.00 | 22 | 1003.9 |
| 20260504150107 | 69 | 360 | 10.0 | 16.0 | 0.00 | 0.00 | 0.00 | 39 | 1004.6 |
| 20260504081553 | 53 | 360 | 6.0 | 9.0 | 0.00 | 0.00 | 0.00 | 57 | 1004.2 |
| 20260504080112 | 55 | 360 | 5.0 | 10.0 | 0.00 | 0.00 | 0.00 | 52 | 1004.4 |
| 20260504044551 | 53 | 360 | 4.0 | 8.0 | 0.00 | 0.00 | 0.00 | 54 | 1007.4 |
| 20260504043052 | 56 | 360 | 5.0 | 8.0 | 0.00 | 0.00 | 0.00 | 51 | 1007.5 |
| 20260504041549 | 58 | 360 | 7.0 | 11.0 | 0.00 | 0.00 | 0.00 | 47 | 1007.7 |
| 20260504040110 | 58 | 360 | 6.0 | 10.0 | 0.00 | 0.00 | 0.00 | 48 | 1007.8 |
| 20260504034546 | 60 | 360 | 6.0 | 10.0 | 0.00 | 0.00 | 0.00 | 45 | 1007.9 |
| 20260504033052 | 61 | 360 | 5.0 | 9.0 | 0.00 | 0.00 | 0.00 | 43 | 1008.1 |
| 20260504031551 | 62 | 360 | 5.0 | 10.0 | 0.00 | 0.00 | 0.00 | 43 | 1008.2 |
| 20260504030048 | 62 | 360 | 6.0 | 9.0 | 0.00 | 0.00 | 0.00 | 42 | 1008.3 |
| 20260504024549 | 62 | 360 | 5.0 | 9.0 | 0.00 | 0.00 | 0.00 | 42 | 1008.3 |
| 20260504023057 | 62 | 360 | 4.0 | 8.0 | 0.00 | 0.00 | 0.00 | 43 | 1008.5 |
| 20260504021555 | 63 | 360 | 4.0 | 9.0 | 0.00 | 0.00 | 0.00 | 42 | 1008.4 |
| 20260504020049 | 64 | 360 | 4.0 | 8.0 | 0.00 | 0.00 | 0.00 | 42 | 1008.4 |
| 20260504014600 | 66 | 360 | 5.0 | 9.0 | 0.00 | 0.00 | 0.00 | 39 | 1008.3 |
| 20260504013058 | 67 | 360 | 5.0 | 8.0 | 0.00 | 0.00 | 0.00 | 37 | 1008.4 |